BGUSAT

Last updated on Fri Feb 24 2023 00:03:44 GMT+0000 (Coordinated Universal Time)

1 41999U 17008BD 23054.20034472 .04665615 23214-5 22076-2 0 9993 2 41999 97.2238 133.6197 0007763 296.0194 64.0297 16.21469296335611

Satellite not in orbit